SCP
0 0 0 0 0 0 0 0 0 0 0 0 0 0 0 0 0 0 0 0 0 0 0 0 0 0 0 -0 -0 -0 -0 0 0 0 0 0 -0 0 0 0 0 0 0 0
0 0 0 0 0 0 0 0 0 0 0 0 0 0 0 0 0 0 0 0 0 0 0 0 0 0 0 -0 -0 -0 0 0 0 0 0 0 0 0 0 0 0 0 0 0
0 0 0 0 0 0 0 0 0 0 0 0 0 0 0 0 0 0 0 0 0 0 0 0 0 -0 -0 -0 0 0 0 0 0 0 0 0 0 0 0 0 0 0 0 0
0 0 0 0 0 0 0 0 0 0 0 0 0 0 0 0 0 0 0 0 0 0 0 0 -0 -0 0 0 0 0 0 0 0 0 0 0 0 0 0 0 0 0 0 0
0 0 0 0 0 0 0 0 0 0 0 0 0 0 0 0 0 0 0 0 0 0 0 0 0 0 0 0 0 0 0 0 0 0 0 0 0 0 0 0 0 0 0 0
0 0 0 0 0 0 0 0 0 0 0 0 0 0 0 0 0 0 0 0 0 0 0 0 0 0 0 0 0 0 0 0 0 0 0 0 0 0 0 0 0 0 0 0
0 0 0 0 0 0 0 0 0 0 0 0 0 0 0 0 0 0 0 0 0 0 -0 0 0 0 0 0 0 0 0 0 0 0 0 0 0 0 0 0 0 0 0 0
0 0 0 0 0 0 0 0 0 0 0 0 0 0 0 0 0 0 0 0 0 0 0 0 0 0 0 0 0 0 0 0 0 0 0 0 0 0 0 0 0 0 0 0
0 0 0 0 0 0 0 0 0 0 0 0 0 0 0 0 0 0 0 0 0 0 0 0 0 0 0 0 0 0 0 0 0 0 0 0 0 0 0 0 0 0 0 0
0 0 0 0 0 0 0 0 0 0 0 0 0 0 0 0 0 0 0 0 0 0 0 0 0 0 0 0 0 0 0 0 0 0 0 0 0 0 0 0 0 0 0 0
0 0 0 0 0 0 0 0 0 0 0 0 0 0 0 0 0 0 0 0 0 0 0 0 0 0 0 0 0 0 0 0 0 0 0 0 0 0 0 0 0 0 0 0
0 0 0 0 0 0 0 0 0 0 0 0 0 0 0 0 0 0 0 0 0 0 0 0 0 0 0 0 0 0 0 0 0 0 0 0 0 0 0 0 0 0 0 0
0 0 0 0 0 0 0 0 0 0 0 0 0 0 0 0 0 0 0 0 0 0 0 0 0 0 0 0 0 0 0 0 0 0 0 0 0 0 0 0 0 0 0 0
0 0 0 0 0 0 0 0 0 0 0 0 0 0 0 0 0 0 0 0 0 0 0 0 0 0 0 0 0 0 0 0 0 0 0 0 0 0 0 0 0 0 0 0
0 0 0 0 0 0 0 0 0 0 0 0 0 0 0 0 0 0 0 0 0 0 0 0 0 0 0 0 0 0 0 0 0 0 0 0 0 0 0 0 0 0 0 0
0 0 0 0 0 0 0 0 0 0 0 0 0 0 0 0 0 0 0 0 0 0 0 0 0 0 0 0 0 0 0 0 0 0 0 0 0 0 0 0 0 0 0 0
0 0 0 0 0 0 0 0 0 0 0 0 0 0 0 0 0 0 0 0 0 0 0 0 0 0 0 0 0 0 0 0 0 0 0 0 0 0 0 0 0 0 0 0
0 0 0 0 0 0 0 0 0 0 0 0 0 0 0 0 0 0 0 0 0 0 0 0 0 0 0 0 0 0 0 0 0 0 0 0 0 0 0 0 0 0 0 0
0 0 0 0 0 0 0 0 0 0 0 0 0 0 0 0 0 0 0 0 0 0 0 0 0 0 0 0 0 0 0 0 0 0 0 0 0 0 0 0 0 0 0 0
0 0 0 0 0 0 0 0 0 0 0 0 0 0 0 0 0 0 0 0 0 0 0 0 0 0 0 0 0 0 0 0 0 0 0 0 0 0 0 0 0 0 0 0
0 0 0 0 0 0 0 0 0 0 0 0 0 0 0 0 0 0 0 0 0 0 0 0 0 0 0 0 0 0 0 0 0 0 0 0 0 0 0 0 0 0 0 0
0 0 0 0 0 0 0 0 0 0 0 0 0 0 0 0 0 0 0 0 0 0 0 0 0 0 0 0 0 0 0 0 0 0 0 0 0 0 0 0 0 0 0 0
0 0 0 0 0 0 0 0 0 0 0 0 0 0 0 0 0 0 0 0 0 0 0 0 0 0 0 0 0 0 0 0 0 0 0 0 0 0 0 0 0 0 0 0
0 0 0 0 0 0 0 0 0 0 0 0 0 0 0 0 0 0 0 0 0 0 0 0 0 0 0 0 0 0 0 0 0 0 0 0 0 0 0 0 0 0 0 0
0 0 0 0 0 0 0 0 0 0 0 0 0 0 0 0 0 0 0 0 0 0 0 0 0 0 0 0 0 0 0 0 0 0 0 0 0 0 0 0 0 0 0 0
0 0 0 0 0 0 0 0 0 0 0 0 0 0 0 0 0 0 0 0 0 0 0 0 0 0 0 0 0 0 0 0 0 0 0 0 0 0 0 0 0 0 0 0
Wind_Speed
8 10 6 6 4 0 1 3 3 4 4 8 11 10 7 7 9 10 10 10 11 10 10 10 11 12 13 15 15 15 15 14 12 11 11 10 9 9 8 7 11 12 13 13
8 7 5 2 4 5 4 4 3 3 5 8 9 9 7 7 6 6 7 9 10 11 13 13 13 13 14 15 15 15 15 15 13 11 10 8 8 8 9 9 11 12 14 13
8 2 4 5 8 7 4 3 2 3 5 6 8 5 5 4 4 6 7 6 8 10 10 10 10 11 12 14 15 15 15 15 14 13 10 10 8 8 9 11 11 13 15 14
5 4 5 6 5 4 2 1 1 4 5 5 6 4 4 3 6 8 8 9 9 9 8 8 10 12 13 13 14 15 16 15 14 13 12 14 12 11 12 11 11 14 14 13
3 4 6 6 4 3 4 2 1 2 5 3 2 4 2 2 5 6 7 8 9 8 8 8 9 10 12 13 14 14 15 15 15 15 15 14 12 11 11 12 13 12 11 11
3 2 3 2 2 2 3 3 3 4 4 2 0 4 1 1 1 3 6 8 9 9 8 7 8 9 11 12 13 14 16 16 16 16 16 16 16 16 16 17 15 13 11 11
7 4 6 4 6 8 9 7 6 7 4 2 3 4 2 3 2 1 5 9 10 9 7 8 10 11 13 14 14 15 16 16 16 16 16 16 16 16 16 16 15 15 12 12
5 4 5 5 3 3 4 5 4 2 5 5 2 2 4 4 2 2 5 7 9 8 7 8 9 9 11 13 14 15 16 16 16 16 16 15 15 12 12 15 14 14 12 12
3 4 4 3 3 2 2 3 2 4 2 5 2 1 2 1 4 6 7 8 8 7 7 7 8 8 10 11 13 15 16 16 16 16 16 14 14 14 14 15 14 12 12 13
2 4 5 6 4 6 4 5 4 3 3 7 5 4 3 2 7 8 8 9 9 7 7 7 7 8 9 10 11 12 14 15 15 15 14 14 14 14 14 13 14 15 15 15
1 1 6 5 4 3 3 4 5 3 3 2 7 4 5 3 5 8 9 9 8 7 7 7 7 7 8 9 10 11 13 15 15 15 14 14 13 13 13 13 14 14 14 14
2 3 3 3 1 2 3 3 3 1 3 3 4 5 3 3 4 7 9 9 7 6 6 6 7 7 9 10 11 12 12 13 14 14 14 14 13 14 13 14 14 14 15 14
2 3 3 3 1 5 5 2 1 3 3 3 3 6 2 3 6 6 8 8 6 6 7 6 6 8 10 10 11 11 11 13 13 13 13 13 13 14 14 14 14 14 14 14
4 3 3 4 3 2 2 2 0 4 3 3 5 7 6 7 8 10 9 7 6 7 7 7 7 8 9 9 10 11 11 11 13 13 13 13 13 14 13 13 13 14 14 14
4 2 1 1 2 1 1 1 1 3 4 5 5 5 7 7 8 10 9 8 8 9 9 9 9 8 9 9 10 10 11 11 13 13 13 13 13 13 13 13 13 14 14 15
3 2 1 1 2 1 2 1 2 2 2 3 4 7 5 6 6 8 9 8 9 10 10 10 10 10 10 10 10 11 11 12 12 12 12 13 13 14 13 13 13 13 13 13
2 2 1 3 4 2 5 5 4 3 3 4 5 6 6 8 9 10 7 6 8 9 10 10 10 9 9 9 9 10 11 11 11 12 12 13 13 13 14 14 14 13 13 12
4 3 2 1 4 4 4 1 2 2 5 5 5 5 6 7 9 6 2 4 6 7 8 8 8 9 8 7 9 9 9 10 11 11 11 12 12 13 13 12 13 12 11 11
2 5 3 2 3 8 3 2 3 2 5 3 3 6 7 5 6 2 3 4 4 4 5 5 6 6 7 8 9 9 10 9 10 11 12 12 12 12 12 12 12 11 11 10
5 5 5 3 2 7 2 2 2 3 4 2 2 5 6 7 7 4 5 4 4 4 5 5 6 6 7 8 8 9 10 10 11 12 13 12 12 12 11 10 10 10 11 11
1 3 3 4 5 9 3 2 4 2 4 2 2 3 4 3 4 6 6 5 4 4 5 6 6 6 7 8 8 9 10 10 11 12 12 12 12 11 9 8 9 10 11 11
7 5 5 4 4 9 3 6 5 6 1 1 2 2 3 4 5 6 6 6 7 7 7 7 7 8 8 8 8 10 11 11 12 12 12 12 11 10 10 9 9 9 9 9
7 8 7 9 7 3 3 4 3 3 0 1 1 2 2 3 4 5 5 5 5 6 7 6 7 9 9 8 8 10 12 12 12 12 13 12 13 10 9 8 9 8 7 7
4 3 4 4 5 3 2 3 3 2 1 2 2 2 2 2 3 4 5 6 6 7 7 7 8 10 11 10 10 10 12 12 13 14 13 12 11 11 8 8 8 7 7 7
6 6 4 4 2 3 2 2 2 3 3 3 3 3 3 2 3 3 4 5 6 8 7 8 8 10 12 12 12 13 12 12 13 14 13 13 12 11 9 9 7 10 7 10
6 8 8 6 6 6 5 3 4 4 3 3 3 3 4 4 3 3 4 4 5 7 7 9 10 12 12 13 13 13 12 12 13 14 14 12 11 10 10 10 10 14 15 18
Wind_Direction
28 52 30 349 0 101 124 94 72 54 54 79 95 97 69 48 49 41 31 22 14 7 356 3 8 5 4 3 360 356 354 352 352 350 346 340 340 339 336 337 339 338 338 336
45 32 327 336 25 54 88 95 88 92 74 97 101 87 63 46 51 45 31 17 3 359 359 1 2 2 0 357 355 353 352 349 351 348 340 334 332 332 334 335 334 336 336 333
89 338 343 51 36 38 50 101 140 141 76 85 114 97 90 49 51 41 25 7 0 1 349 348 354 355 355 355 353 349 346 346 348 347 345 341 337 338 341 338 335 335 332 330
65 7 35 50 41 33 341 349 251 177 147 177 155 163 171 113 41 21 4 356 350 347 343 347 354 354 355 351 348 346 345 345 348 349 349 346 348 343 338 333 328 326 326 325
36 11 31 32 0 357 280 318 254 167 150 117 130 137 208 74 33 1 345 339 336 336 341 346 351 350 351 350 348 345 344 347 350 351 349 347 347 342 335 334 330 328 325 326
8 20 44 348 343 2 322 32 83 66 91 142 229 169 233 34 58 325 330 331 331 332 338 341 347 352 352 351 349 348 346 348 351 351 350 348 347 343 339 339 335 334 331 332
360 18 5 5 10 5 27 44 19 2 359 278 77 105 185 177 179 310 326 323 323 328 337 344 351 355 353 351 351 348 347 348 350 350 348 344 346 343 340 337 333 332 331 332
28 343 351 2 41 1 24 75 101 285 279 295 37 154 210 191 217 295 308 310 317 326 338 343 349 355 351 351 351 351 348 346 348 349 345 343 347 344 337 333 330 329 328 327
47 296 319 346 344 53 64 80 137 158 291 283 269 179 237 232 311 310 309 315 321 325 334 337 346 356 352 352 353 348 346 346 347 344 341 341 345 341 337 332 330 329 328 328
105 296 310 318 38 32 82 129 79 72 334 303 291 221 216 264 305 308 313 317 319 325 332 337 350 356 354 354 350 347 345 345 342 342 341 342 339 337 335 333 333 331 330 332
66 216 316 14 44 356 27 60 84 99 159 239 292 279 169 211 284 301 304 306 315 327 333 341 350 354 351 352 350 346 345 343 341 340 338 336 335 335 335 335 334 331 331 335
69 112 299 292 2 24 95 97 118 130 258 204 238 267 165 197 283 294 297 304 315 324 329 340 348 352 351 351 349 345 343 341 339 337 336 334 334 335 336 335 334 334 334 334
104 94 357 357 337 18 45 34 112 133 145 191 215 272 204 281 301 297 301 311 318 325 333 341 348 354 350 347 343 339 339 338 337 337 335 334 335 336 335 334 334 335 335 334
99 110 178 235 267 305 314 331 165 136 172 232 235 277 301 313 314 321 325 325 320 335 340 344 349 349 343 340 337 335 335 336 337 337 334 334 334 333 332 332 334 336 336 336
86 130 228 265 12 274 229 271 219 168 184 208 254 269 283 296 307 310 317 326 336 344 344 347 347 343 338 337 335 335 334 335 335 334 334 333 331 331 332 334 336 337 337 338
65 115 45 279 4 300 223 220 171 161 190 235 265 275 262 299 313 315 322 333 339 339 342 346 344 341 337 335 335 334 331 331 332 330 329 331 334 335 336 335 338 338 336 335
79 115 73 287 323 339 269 210 187 210 220 221 246 261 304 318 321 316 322 343 337 339 345 344 340 335 329 327 329 328 324 324 327 327 328 331 333 335 336 337 339 337 334 333
124 106 103 330 18 281 270 155 175 239 258 232 240 275 297 295 300 301 4 351 338 343 342 335 329 326 320 318 324 322 319 321 324 325 327 330 333 333 333 336 337 334 331 330
109 124 107 88 295 279 283 236 189 228 287 238 245 288 302 312 312 310 50 11 349 344 332 320 317 313 314 319 322 323 322 322 326 329 331 330 330 331 332 337 334 332 330 328
58 88 110 131 260 263 253 162 135 94 301 286 258 295 313 341 335 326 25 11 359 346 330 322 320 317 318 316 321 324 322 323 326 328 328 326 326 327 325 330 330 329 329 332
113 79 133 176 237 267 239 154 116 123 269 306 310 305 319 309 279 324 360 2 357 342 328 324 320 317 313 314 322 321 319 317 318 321 322 323 323 318 317 323 324 326 331 332
180 170 190 162 217 266 206 140 167 211 237 310 313 320 313 300 314 337 349 347 347 338 330 326 324 320 316 315 318 316 315 312 314 315 317 317 315 314 323 318 316 320 325 328
196 190 186 191 211 251 183 170 165 147 118 349 345 350 340 323 332 341 341 340 339 332 326 325 321 318 317 314 313 312 312 313 314 314 312 311 310 307 307 307 308 311 316 321
242 161 167 238 258 232 163 118 97 85 84 62 69 54 36 348 347 348 340 343 338 329 328 327 326 324 319 316 316 309 309 313 314 312 311 309 309 306 301 303 305 309 308 309
218 168 182 242 247 132 157 143 119 99 94 93 85 76 63 44 15 353 338 334 330 331 326 327 324 318 315 318 316 315 316 314 313 311 310 311 311 306 302 300 296 301 292 298
190 175 175 213 200 170 186 152 130 123 114 109 107 90 66 52 15 351 335 324 322 323 322 322 321 320 318 318 315 315 315 315 314 315 316 315 313 311 311 306 303 301 305 312